GEFSCGP_500_meanwind_078.txt.gz
Wind_Speed
36 39 42 42 42 42 41 41 41 40 40 41 42 42 44 47 47 48 48 48 48 48 48 48 47 47 46 46 45 44 43 42 41 41 41 40 39 39 39 38 37 37 37 37
32 35 38 40 40 40 40 39 39 39 39 39 40 41 42 45 47 46 46 45 46 47 46 47 47 47 46 46 46 46 45 44 43 43 43 42 42 41 40 39 39 39 39 38
28 32 35 38 38 38 39 37 37 37 37 38 39 40 41 42 44 45 45 44 44 45 46 46 46 46 46 46 46 46 46 46 45 45 44 44 43 42 42 41 41 40 40 40
26 28 33 36 36 35 35 35 36 36 37 38 38 39 39 40 42 43 43 44 43 44 45 45 45 46 45 46 46 46 47 46 46 46 45 45 44 43 43 42 42 42 42 42
23 27 30 33 35 34 33 33 34 34 36 37 37 37 36 38 40 40 41 42 43 43 45 45 46 46 45 45 46 46 47 47 47 47 47 46 45 45 44 43 43 43 43 43
20 25 28 31 33 32 31 30 32 33 35 37 36 36 34 35 36 38 40 41 42 43 43 45 45 46 46 46 46 46 47 47 47 47 47 47 46 46 45 44 44 44 44 44
19 23 26 30 32 31 30 29 30 32 34 36 35 35 31 31 34 36 38 40 41 42 43 43 44 45 46 46 47 47 48 48 48 48 48 47 47 46 46 45 45 45 45 45
18 22 25 28 30 29 29 29 29 30 32 33 33 33 29 30 32 35 37 38 40 42 43 43 44 45 46 47 47 47 47 48 48 48 48 48 48 47 47 47 47 47 47 47
16 19 22 25 26 27 27 28 28 28 28 29 31 31 29 28 30 33 36 38 39 40 42 43 44 45 46 47 47 47 47 48 48 48 48 48 48 47 47 48 47 47 47 47
14 18 20 21 24 25 27 27 27 28 28 28 29 29 28 27 29 31 34 37 38 40 41 42 44 45 46 47 47 47 47 47 47 47 47 47 47 47 47 47 47 47 47 46
12 16 20 22 24 25 25 26 28 28 29 28 27 26 25 26 28 29 32 34 37 39 40 42 42 44 45 46 46 47 47 47 46 46 46 46 46 46 46 46 46 46 46 46
12 14 18 21 23 25 25 25 27 28 28 28 27 25 24 24 26 27 29 31 34 37 39 40 41 42 43 44 45 45 46 46 46 46 45 45 45 45 45 45 45 45 45 45
14 15 18 20 22 24 25 25 27 28 29 29 28 25 23 23 24 26 28 29 31 33 35 37 39 40 41 41 42 44 44 45 45 45 45 45 45 44 44 44 44 44 43 43
16 17 18 20 21 23 24 25 27 29 30 29 27 24 23 24 25 26 28 29 30 32 33 35 36 37 38 39 40 41 41 42 43 43 44 44 44 44 43 42 42 42 41 41
18 19 20 21 22 23 24 25 27 28 29 29 27 25 23 25 27 27 28 29 30 31 32 33 34 35 36 37 38 38 39 39 40 40 41 41 41 41 40 40 39 39 39 39
20 21 21 22 23 25 25 26 27 28 28 28 27 24 23 26 28 28 28 29 29 30 31 32 33 33 34 35 36 37 37 37 38 38 38 38 38 38 38 37 37 37 37 36
21 22 23 23 24 26 25 24 26 27 27 27 27 24 26 27 28 29 29 29 29 29 30 30 31 32 32 33 33 34 35 35 35 35 35 35 35 35 35 35 35 35 34 34
22 22 23 24 25 26 23 23 25 26 25 26 26 25 26 27 27 27 28 28 28 28 29 29 29 29 30 30 30 31 32 32 32 32 32 32 32 32 32 32 32 32 32 31
24 24 25 25 25 24 22 23 23 25 25 27 27 26 26 26 25 25 26 27 27 27 27 27 28 27 27 28 28 28 29 29 30 30 30 30 30 30 30 30 30 30 30 29
25 25 25 26 26 25 22 23 24 25 24 25 26 26 26 25 24 24 25 25 25 26 26 25 26 26 26 26 26 26 27 27 28 28 28 28 28 28 28 28 28 28 28 27
24 26 26 26 27 25 23 23 23 24 23 23 24 24 25 25 25 25 25 24 24 25 24 24 25 25 25 25 25 25 26 26 26 26 26 27 27 27 27 27 26 26 26 26
24 25 25 26 26 24 23 23 24 24 23 23 23 23 23 24 24 25 25 24 24 24 24 24 24 24 25 25 25 25 25 25 25 25 25 26 26 26 25 25 25 25 25 25
24 24 25 25 24 24 24 24 24 24 24 23 23 22 23 23 23 24 24 24 24 24 24 24 24 24 25 25 25 25 25 25 25 25 25 25 25 25 24 24 24 24 24 24
24 24 25 25 23 24 24 24 25 25 24 24 24 23 23 23 24 24 24 24 24 24 24 24 24 25 25 25 24 24 24 24 24 24 24 24 24 24 24 24 24 24 24 25
26 26 26 26 25 25 25 25 25 25 25 24 24 24 24 24 24 24 24 24 24 24 24 24 25 25 24 24 24 23 24 24 24 24 24 24 24 24 24 25 25 25 25 25
26 29 28 27 26 26 25 25 26 26 25 25 25 24 25 25 25 24 25 24 24 24 24 24 24 24 24 24 24 24 24 24 24 24 24 24 24 25 25 25 25 26 26 26

GEFSCGP_500_meanwind_084.txt.gz
Wind_Speed
26 30 32 36 38 40 40 40 41 42 43 44 45 47 48 48 49 51 52 53 53 52 52 51 50 49 48 48 47 46 45 46 45 45 44 44 44 43 43 42 42 41 40 39
24 27 30 33 35 38 39 39 40 41 42 42 43 45 47 48 48 49 51 51 51 52 51 51 51 51 50 50 49 48 47 47 47 47 47 46 46 46 46 45 44 43 43 42
21 24 28 31 34 35 37 38 39 39 39 41 42 43 44 47 48 48 49 50 50 51 51 51 51 52 52 51 50 50 49 49 49 49 49 49 49 48 48 47 46 45 45 44
17 22 26 29 31 33 34 36 36 37 38 40 42 42 41 43 45 47 47 49 49 49 50 50 50 52 52 52 51 50 50 50 50 50 51 51 50 50 49 48 48 47 47 46
15 20 23 26 29 31 31 33 34 34 36 38 40 41 39 39 41 42 44 45 47 48 49 50 50 52 52 52 52 52 51 51 51 51 51 51 51 51 51 50 50 49 48 48
13 17 21 24 27 29 28 29 31 32 34 36 37 39 38 37 36 38 40 42 44 46 48 49 50 51 51 51 51 51 52 52 52 51 51 51 51 51 51 51 50 50 50 50
12 15 18 21 25 27 27 28 29 31 33 35 35 37 36 34 35 36 37 40 41 44 45 46 47 49 50 51 51 51 51 52 52 52 51 51 51 51 51 51 51 51 51 51
11 14 17 20 23 25 26 27 28 30 32 32 32 34 33 33 33 35 36 37 39 41 43 44 45 46 48 49 50 50 51 51 51 52 52 51 51 51 51 51 51 51 51 51
10 13 16 19 22 24 25 26 27 28 30 30 31 31 31 31 32 34 35 36 37 39 40 42 43 44 46 47 48 49 50 50 50 51 51 51 51 51 51 51 51 51 51 51
10 13 16 18 21 24 24 24 25 27 29 29 30 30 30 30 31 32 33 35 36 37 38 40 41 42 43 45 46 47 48 49 49 49 49 50 50 50 50 51 51 51 50 50
11 13 16 18 20 21 24 24 25 27 29 29 29 28 28 29 30 31 31 33 34 35 37 38 40 41 42 43 45 46 47 47 48 48 48 49 49 49 50 50 49 49 49 49
12 14 16 18 20 22 24 24 26 28 29 29 30 28 27 27 28 29 31 32 33 34 35 36 37 38 39 41 43 44 45 46 46 47 47 48 48 49 49 48 48 48 48 47
14 16 17 19 21 21 23 24 25 26 28 29 30 28 26 26 28 29 30 32 33 33 34 34 35 37 38 39 40 42 43 44 45 46 46 46 47 47 47 47 47 47 47 47
16 17 18 19 21 22 23 24 26 27 28 28 28 26 25 26 28 30 31 32 33 34 34 34 35 35 37 38 39 40 41 42 43 43 44 44 44 45 45 45 46 46 46 46
18 19 20 21 22 23 24 25 26 27 27 28 26 26 24 26 28 30 31 32 32 33 33 33 33 34 35 36 37 38 39 40 41 41 42 42 42 42 43 43 44 44 44 44
19 21 22 23 24 25 26 26 27 27 28 28 27 25 25 27 27 28 30 31 31 32 32 33 33 33 34 34 35 36 37 37 38 39 39 40 40 40 41 41 41 41 40 41
19 20 22 23 24 26 26 25 26 28 27 29 29 26 27 27 28 28 29 30 30 31 31 32 33 33 33 33 34 34 34 35 36 36 37 37 38 38 38 38 38 38 38 38
19 21 22 23 24 26 24 24 26 27 27 28 28 28 28 28 28 28 28 29 29 29 30 32 33 33 33 33 33 33 33 33 34 34 35 35 35 36 36 37 37 36 36 35
21 22 23 23 24 24 22 23 24 26 27 27 27 27 28 28 27 27 28 28 28 29 30 30 31 32 32 32 32 32 32 32 32 32 32 32 33 33 33 33 34 34 34 33
22 23 24 24 25 25 22 23 24 24 25 25 26 26 26 26 26 27 27 27 27 28 28 28 29 30 30 30 30 30 30 30 30 30 31 31 31 31 31 31 31 31 31 31
23 23 24 25 26 25 24 24 23 23 23 23 24 25 25 25 26 26 27 27 27 27 26 27 27 28 28 28 29 29 29 29 29 29 29 29 30 30 30 30 30 29 29 29
24 24 24 25 25 24 23 23 24 24 24 24 24 24 24 24 24 25 26 26 26 26 26 26 26 26 27 27 27 28 28 28 28 28 28 28 28 29 29 29 29 29 29 29
25 24 24 24 24 24 24 23 24 24 24 24 24 24 24 23 23 24 24 25 25 25 25 26 26 26 26 27 27 27 27 28 28 28 28 28 28 28 28 28 28 28 28 28
25 24 24 24 23 24 24 23 24 24 24 24 24 24 24 24 24 24 23 23 24 24 25 26 26 26 27 27 27 27 27 27 28 28 28 28 28 28 27 27 27 27 27 27
25 24 23 23 24 25 25 24 24 25 25 25 24 24 23 24 24 24 24 24 24 24 24 25 26 26 27 27 27 27 28 28 28 27 27 27 27 26 26 27 27 27 27 27
24 23 23 22 23 24 25 25 24 24 24 24 24 23 23 23 24 24 24 24 24 24 24 24 24 25 26 26 26 26 27 27 27 27 27 27 27 27 27 27 28 28 27 27

GEFSCGP_500_meanwind_090.txt.gz
Wind_Speed
19 21 24 27 31 34 36 39 40 41 42 44 47 47 47 48 48 49 49 49 49 50 51 51 51 50 48 48 47 47 46 45 44 44 43 42 41 41 41 42 42 41 41 41
17 18 20 23 27 30 33 35 37 38 39 42 44 46 47 47 46 46 47 48 48 49 50 51 51 51 51 50 49 48 47 47 46 46 45 44 43 43 43 43 44 44 44 44
14 16 18 20 23 27 31 32 32 34 36 38 41 43 45 46 46 46 47 47 48 49 49 49 50 50 50 50 50 50 49 48 48 47 47 47 46 46 46 46 45 45 46 46
12 14 17 18 20 24 29 31 31 32 34 36 38 40 42 43 44 46 46 46 47 48 49 49 49 50 50 51 50 50 51 50 50 50 50 49 49 48 48 48 48 48 48 48
10 12 16 17 19 22 26 29 29 31 33 34 36 38 39 42 43 44 45 46 46 47 49 50 51 50 50 50 50 50 51 51 51 51 51 51 51 51 50 49 50 50 49 50
7 10 13 17 19 21 24 26 28 30 32 34 33 37 38 38 39 40 42 44 45 46 48 49 50 50 50 50 50 51 51 51 51 51 51 51 52 51 51 52 52 52 51 51
5 8 11 15 18 20 22 25 26 28 31 32 31 35 36 36 37 38 38 39 42 44 46 47 49 49 49 50 50 50 51 51 51 51 51 51 51 52 52 53 53 52 52 52
6 8 10 12 16 18 20 22 23 25 28 29 31 33 33 34 35 35 35 36 38 40 42 44 45 46 47 49 50 50 51 51 52 52 51 51 51 51 51 52 52 52 52 52
7 9 11 12 15 17 19 20 21 24 26 28 29 30 31 31 32 33 34 36 37 38 40 42 42 43 44 46 47 49 50 50 51 52 53 53 53 53 53 53 54 53 53 53
8 10 11 14 16 16 17 18 20 23 25 26 27 27 29 30 31 31 31 33 35 36 37 38 39 40 41 42 44 46 47 48 50 51 52 52 53 54 54 54 53 53 53 53
9 11 12 14 15 16 19 20 21 24 26 27 27 27 27 28 29 29 30 31 32 34 35 36 37 38 39 40 41 43 44 46 47 47 48 49 50 51 51 51 52 52 51 51
11 13 14 15 16 18 20 21 23 25 26 27 27 27 26 28 28 28 29 30 31 32 33 34 36 37 38 38 39 41 42 43 44 45 45 46 47 47 48 48 49 49 49 50
12 13 15 16 17 19 21 22 24 26 27 27 28 27 26 28 28 28 29 30 31 32 33 34 35 36 36 37 38 38 39 40 42 43 44 45 45 46 46 47 47 47 48 48
14 14 16 17 18 20 21 22 24 26 28 28 28 27 26 27 28 29 30 30 31 31 32 33 34 34 35 35 36 37 37 37 38 40 41 42 43 43 44 44 45 46 46 47
15 16 17 18 20 23 24 24 26 27 28 30 29 29 28 28 29 30 30 30 31 31 31 32 32 34 34 34 35 35 36 36 36 37 38 39 40 41 41 42 43 44 44 45
17 18 18 19 21 24 25 24 26 27 28 29 29 28 26 29 30 31 30 31 31 31 31 32 32 33 34 34 34 35 35 36 36 36 37 37 38 39 40 40 40 40 41 41
19 19 20 20 21 23 23 24 26 27 27 28 29 27 27 28 29 30 31 31 31 31 32 32 32 33 33 33 34 34 35 35 35 35 36 36 36 37 37 38 38 38 38 39
21 21 22 22 22 22 22 23 25 26 26 26 26 27 27 27 28 29 30 30 30 30 31 31 32 32 32 32 33 34 34 34 34 35 35 36 36 36 36 37 37 37 38 38
23 23 23 23 23 24 23 22 23 25 25 25 26 26 26 26 27 27 27 28 28 29 29 30 31 31 31 32 32 33 33 33 34 34 35 35 35 35 36 36 36 36 36 36
26 25 24 24 25 25 24 23 23 23 24 25 25 25 25 25 26 26 26 27 28 28 29 29 30 30 31 31 31 31 32 32 33 34 34 34 34 34 35 35 35 35 34 34
27 27 25 25 25 25 25 24 23 23 24 24 24 24 24 25 25 25 26 26 27 28 29 29 29 30 30 30 30 30 31 31 32 32 32 33 33 33 33 33 33 33 33 32
29 28 26 25 25 26 26 25 24 24 25 24 24 24 24 25 25 26 27 27 27 28 29 29 29 29 30 30 30 30 30 31 31 31 31 31 31 31 32 32 32 31 31 31
30 30 28 26 25 26 26 25 25 25 25 25 25 24 25 25 25 26 26 27 28 28 28 29 29 29 29 30 30 30 30 30 30 30 30 30 31 31 31 31 31 31 31 31
31 32 30 28 28 27 26 26 26 26 26 26 26 25 26 26 26 26 26 26 27 27 27 28 29 29 30 30 30 30 31 31 30 31 31 31 31 30 30 30 30 30 30 30
33 33 31 29 28 28 27 27 26 25 26 26 26 26 26 26 25 25 25 25 26 26 27 27 28 28 29 30 30 30 31 31 31 31 31 31 31 30 30 31 30 30 30 29
33 33 33 30 30 28 26 27 27 26 26 26 25 24 24 25 25 24 24 24 25 26 27 27 27 27 27 28 28 29 30 30 30 31 31 31 31 31 31 30 30 29 29 28

GEFSCGP_500_meanwind_096.txt.gz
Wind_Speed
14 16 19 23 26 27 31 35 36 36 39 40 40 42 43 43 45 45 46 46 45 44 45 46 46 46 46 45 45 45 44 43 43 42 41 41 40 40 40 39 38 37 37 37
12 14 15 19 22 23 27 31 34 35 34 37 39 39 41 41 43 43 44 46 45 45 45 46 46 46 46 46 47 46 46 45 44 44 43 44 44 43 42 41 41 41 40 40
10 11 12 15 18 20 23 27 31 32 33 34 37 38 37 38 39 41 41 43 45 45 45 45 46 46 46 46 46 47 47 47 47 46 46 45 45 45 44 43 43 42 42 42
8 8 9 12 14 17 18 22 25 29 31 32 34 35 36 37 38 39 40 41 43 44 45 45 45 46 47 47 47 48 48 48 49 49 48 48 48 47 46 46 45 45 45 45
6 7 8 9 11 14 15 19 22 25 28 31 33 34 35 36 37 38 39 40 41 43 44 44 46 47 47 48 48 49 49 49 50 50 50 49 49 49 49 48 48 48 47 47
5 5 6 8 9 11 13 16 18 22 24 27 28 32 33 34 35 36 37 38 40 42 43 44 45 46 46 47 48 49 49 49 50 50 50 51 50 50 49 50 50 49 49 49
3 4 5 7 9 10 12 15 17 20 23 24 25 29 29 30 33 35 36 37 39 41 42 43 44 44 45 46 47 48 49 49 50 50 51 51 51 51 50 50 50 49 49 49
2 3 4 6 8 10 12 15 18 20 22 23 25 27 27 28 30 33 35 36 38 39 40 41 42 43 44 45 45 46 47 49 49 50 50 51 51 52 52 52 51 51 51 51
2 4 5 6 8 10 12 14 17 20 21 23 24 25 25 25 28 31 33 34 35 37 39 40 41 42 43 44 44 45 46 48 49 50 50 50 51 51 51 52 52 51 50 50
3 4 6 7 9 10 12 14 16 18 21 23 24 24 24 25 27 29 31 32 33 35 38 39 41 41 41 43 44 44 45 46 47 48 49 49 50 50 51 52 52 51 51 50
3 4 6 8 10 12 14 15 16 18 20 22 23 23 24 25 26 28 29 31 31 33 35 38 40 41 40 41 42 43 44 44 45 46 48 48 49 49 50 51 51 51 51 50
4 4 5 8 10 12 14 16 17 19 20 22 24 22 23 26 27 29 30 31 32 32 34 35 37 39 40 40 41 42 43 43 43 44 45 46 47 47 48 49 49 49 49 49
7 7 7 8 10 13 15 17 19 20 21 23 24 23 24 27 28 30 31 32 33 34 34 35 36 38 39 40 41 41 42 43 43 43 43 44 45 45 45 46 46 46 46 47
9 8 9 10 11 13 15 17 18 20 21 23 23 24 25 27 28 30 32 34 34 34 34 35 36 37 38 39 39 40 41 42 43 43 43 44 44 44 44 44 44 45 45 45
11 10 11 11 12 13 14 17 19 21 22 23 23 24 25 27 28 30 31 32 33 34 34 35 36 36 37 38 39 39 40 41 42 42 42 42 42 42 42 43 43 43 44 44
13 13 13 12 14 15 15 17 19 21 23 24 25 25 26 27 29 30 30 31 32 33 34 35 37 37 37 38 38 39 39 40 41 42 42 41 41 41 41 41 41 42 42 43
15 16 16 15 15 16 16 17 19 21 23 24 25 26 27 27 28 29 29 30 31 32 33 34 36 37 37 38 38 38 38 39 40 41 41 41 41 41 41 41 41 41 42 42
16 18 19 19 19 18 19 20 20 21 22 24 25 25 26 26 26 27 28 29 30 31 31 32 34 35 35 36 37 37 37 38 39 39 40 40 40 40 41 41 40 40 40 40
18 19 21 21 21 20 20 20 21 22 22 23 24 24 24 25 26 25 27 28 29 29 29 30 31 32 33 34 35 36 36 37 37 38 38 38 39 39 39 39 39 39 39 39
18 21 22 23 23 21 21 21 21 22 22 23 24 24 24 24 24 24 26 27 28 28 28 29 30 31 31 32 33 34 34 35 35 36 37 37 38 37 37 37 37 37 37 37
20 22 23 24 24 22 23 22 22 22 23 24 24 25 24 23 23 24 25 25 27 27 27 27 28 30 30 31 32 33 33 33 34 34 35 36 37 36 36 36 36 36 36 36
20 22 24 25 25 24 25 24 24 24 25 24 25 25 25 24 24 25 26 26 26 26 26 27 27 28 29 29 30 31 32 32 32 33 33 34 35 35 35 36 35 35 35 35
21 23 25 25 26 27 27 26 25 26 26 26 26 26 26 25 25 25 26 26 26 26 26 26 27 27 27 28 28 29 30 31 31 31 32 32 33 33 34 34 34 34 34 34
22 24 25 26 27 28 28 28 27 26 27 26 27 27 26 26 26 26 27 27 27 26 26 26 26 25 25 26 27 28 28 29 30 30 31 31 32 32 33 33 33 33 33 33
23 25 26 27 28 29 30 30 29 27 28 28 28 28 27 27 26 26 26 26 26 26 26 25 25 25 25 25 26 27 27 28 29 29 29 30 31 32 32 32 32 32 32 33
25 26 27 28 29 30 31 31 30 28 28 28 28 27 27 27 26 25 24 25 25 26 26 25 25 25 25 26 26 26 26 27 28 29 29 29 30 31 31 32 32 32 32 32

GEFSCGP_500_meanwind_102.txt.gz
Wind_Speed
3 7 10 13 15 17 18 19 22 24 26 30 34 35 35 39 41 42 44 45 45 45 45 44 42 41 40 40 40 40 39 39 38 40 41 41 40 39 38 36 37 37 36 36
3 6 8 11 13 14 14 16 18 21 23 26 30 33 33 36 38 41 43 44 44 44 44 45 43 43 41 41 41 41 42 42 40 40 40 41 41 41 40 39 39 39 38 38
4 4 6 9 11 12 11 13 14 17 20 22 24 27 30 33 35 37 40 42 43 43 44 46 45 44 43 42 42 42 43 43 43 42 40 40 41 42 42 41 41 41 40 39
4 4 4 7 9 10 11 12 13 15 17 18 19 21 24 30 32 34 36 39 41 43 43 43 44 45 45 44 43 43 43 43 43 43 43 43 42 42 42 43 42 42 42 41
4 4 4 5 6 8 9 11 13 15 16 17 18 19 21 25 29 32 34 36 37 40 42 42 43 44 45 45 44 44 44 45 45 44 44 44 45 44 44 44 44 44 44 43
4 3 2 4 6 8 9 10 12 14 17 17 17 18 18 20 25 28 31 34 36 38 40 42 43 43 44 45 45 45 44 45 46 46 46 46 46 45 45 45 45 46 46 46
3 2 1 3 5 6 8 9 11 14 15 15 16 18 17 18 21 25 28 31 35 38 40 41 42 44 45 45 46 46 46 46 47 48 48 48 48 47 47 47 47 48 48 47
3 2 2 2 4 6 8 10 11 13 15 16 16 17 17 18 21 24 26 30 33 36 39 41 43 45 46 47 47 46 46 46 47 48 49 49 49 49 49 49 48 48 49 49
2 2 1 2 4 6 9 11 13 14 15 16 18 18 18 20 22 24 26 29 32 35 37 39 42 44 45 46 47 46 47 46 46 47 48 49 49 49 50 50 50 50 51 51
2 0 1 2 4 5 8 10 12 14 15 16 17 17 18 19 21 24 26 28 30 33 36 38 40 42 44 45 46 46 47 47 47 48 48 49 49 49 49 50 50 51 50 50
3 2 2 3 4 5 6 8 11 13 15 15 15 16 18 19 21 22 24 27 29 31 35 38 40 41 42 44 46 46 47 47 48 48 47 48 49 48 48 49 49 50 49 50
4 4 3 4 5 6 7 8 10 13 14 15 16 15 17 21 22 23 25 27 29 32 34 36 38 39 40 42 44 46 48 48 47 48 47 48 48 48 48 48 48 48 49 49
5 5 5 5 6 6 7 9 10 12 14 16 16 17 19 21 23 25 27 28 30 31 33 35 37 39 40 42 44 46 46 47 47 47 47 47 47 47 48 48 49 49 49 49
5 5 6 7 8 8 8 10 12 14 15 17 17 18 21 23 25 26 29 30 31 32 33 34 36 38 40 41 43 44 45 46 46 47 47 48 48 48 48 48 48 48 48 48
5 6 7 8 9 9 9 11 13 15 17 18 19 21 23 25 26 27 29 30 32 33 34 35 36 36 37 39 41 43 44 45 46 47 48 48 48 48 48 48 48 48 48 47
6 7 8 9 11 11 11 13 14 15 17 18 20 21 24 26 27 27 28 29 30 32 33 34 36 36 37 38 40 42 43 45 45 45 46 47 47 47 47 47 47 47 47 47
6 8 9 10 11 12 13 15 15 16 17 19 20 22 24 26 27 27 28 29 30 31 31 33 34 35 37 37 38 39 41 43 44 44 44 44 44 45 45 46 46 46 46 46
8 10 11 12 13 14 16 17 18 18 19 21 22 23 25 26 27 28 29 30 30 30 31 32 33 33 34 36 37 38 38 39 40 41 42 43 43 43 43 42 42 43 44 43
10 11 12 14 15 16 19 20 20 21 20 22 23 24 25 26 26 27 29 30 30 30 30 30 31 33 33 34 35 36 37 38 38 39 40 41 41 42 42 41 41 40 40 41
11 12 14 15 17 18 20 22 22 23 21 23 24 24 26 27 27 27 29 29 29 29 29 29 30 31 32 34 34 35 36 37 37 38 38 39 40 40 40 41 40 39 39 39
11 12 14 16 17 19 21 23 24 24 24 25 25 26 26 27 28 29 29 29 29 29 29 29 30 30 31 32 33 34 34 35 36 37 37 38 39 39 39 39 39 39 38 38
12 13 15 17 18 20 22 24 25 26 26 26 26 26 27 28 29 30 29 28 28 29 28 28 29 29 29 29 30 31 32 33 33 34 36 36 37 37 38 38 38 38 37 36
14 15 17 18 20 21 23 24 25 27 28 28 27 27 28 29 30 30 30 29 28 28 28 28 27 27 27 28 28 29 29 30 31 33 34 35 35 35 36 36 36 36 36 36
15 17 18 19 21 23 24 26 27 28 29 30 30 29 30 30 30 29 29 28 27 27 26 27 26 26 26 26 27 27 28 28 29 30 31 32 33 33 33 34 34 34 35 35
16 18 19 20 22 23 25 27 28 28 30 31 31 31 32 31 29 28 27 27 26 26 25 25 25 25 24 25 26 26 26 27 27 28 28 28 29 29 30 31 32 31 31 32
18 19 20 21 23 24 26 28 29 29 30 31 32 33 32 31 29 27 26 25 25 24 24 24 23 23 24 24 24 24 25 25 26 27 27 27 28 28 28 29 29 30 30 31

GEFSCGP_500_meanwind_108.txt.gz
Wind_Speed
2 2 3 4 4 6 8 12 14 16 16 18 19 21 23 27 31 32 34 36 38 40 40 39 40 41 40 40 38 38 39 39 40 41 40 41 42 43 43 43 43 41 40 40
2 2 3 4 5 5 7 11 12 14 14 15 18 19 20 23 28 30 33 34 35 37 39 39 38 40 40 41 39 37 37 39 40 40 40 41 43 44 44 43 42 42 42 42
3 3 4 5 6 6 7 10 10 11 13 13 15 17 18 21 26 30 31 31 32 35 37 38 38 39 38 39 39 38 39 39 41 40 41 42 43 44 44 44 44 44 43 43
5 5 5 6 6 6 6 7 9 10 11 12 14 14 16 18 22 26 28 28 30 33 36 37 39 39 39 39 39 39 39 40 41 40 39 41 44 45 45 46 47 46 45 44
7 6 7 7 7 5 5 6 8 9 10 11 12 12 13 15 18 22 25 26 27 31 34 36 37 38 38 37 37 37 38 39 40 40 40 41 43 44 45 46 47 47 46 46
8 8 8 8 7 5 6 6 7 7 9 9 10 11 11 12 16 19 22 25 25 28 32 34 36 37 37 38 37 38 37 38 39 40 41 41 42 44 45 46 46 47 47 47
9 8 8 7 6 5 5 5 5 7 7 7 8 10 11 13 16 18 19 22 24 26 30 32 35 36 37 38 39 40 40 40 40 40 40 41 42 44 46 46 46 47 47 47
9 8 7 6 5 4 4 4 4 5 7 7 7 8 10 12 15 17 18 20 22 23 27 30 32 35 36 38 39 39 40 41 40 39 40 43 44 45 45 46 47 48 48 47
8 7 7 5 5 4 3 3 3 4 6 6 7 7 8 11 13 16 17 19 20 22 25 28 30 31 33 36 38 39 41 41 41 41 41 42 43 45 45 46 48 49 49 48
8 8 6 6 5 4 3 2 2 3 4 5 7 8 8 10 12 13 15 17 20 22 24 26 28 31 33 35 37 40 41 41 42 43 42 42 43 44 45 46 47 47 48 47
8 7 6 4 4 2 3 2 1 1 3 5 6 7 9 10 10 12 15 18 20 22 24 25 27 30 33 36 38 40 41 42 42 43 43 42 42 45 47 47 47 48 48 48
7 6 6 4 3 3 3 2 1 1 1 3 5 6 7 9 10 12 15 18 20 23 25 27 29 31 34 36 38 40 41 42 42 43 44 44 44 44 46 47 47 48 48 47
7 6 6 5 3 3 3 3 3 2 1 2 3 5 7 8 11 14 17 19 21 25 27 29 32 33 35 37 38 40 41 42 42 42 43 45 44 44 44 45 46 47 48 48
6 6 5 4 4 4 3 3 3 3 3 3 4 7 8 9 12 15 18 21 23 26 28 30 31 33 35 36 37 38 40 41 42 43 43 44 44 44 44 45 46 46 46 47
6 6 4 4 4 3 3 4 4 4 4 4 6 8 10 11 13 16 18 21 23 26 28 29 30 31 33 34 35 37 39 40 42 43 43 44 45 45 44 45 45 44 44 44
6 5 4 3 3 3 4 4 6 6 6 6 8 9 12 14 15 17 18 21 23 24 26 28 29 30 31 33 34 36 38 39 40 41 42 43 44 45 44 45 45 44 44 44
6 5 3 2 2 3 4 6 7 8 9 9 9 10 11 13 15 16 18 21 23 24 25 27 28 29 30 32 34 35 37 38 39 40 41 42 43 43 43 43 43 42 43 43
5 4 2 1 1 3 5 7 8 10 11 11 11 12 12 14 16 18 19 21 22 24 25 27 29 29 29 30 31 32 33 35 37 39 40 41 42 42 42 42 42 41 41 41
5 3 2 1 2 3 6 8 10 11 12 13 13 14 15 16 17 19 21 22 24 24 25 26 27 28 29 29 29 29 30 31 34 36 38 39 39 40 40 40 40 40 40 40
6 4 3 2 3 5 7 8 10 12 13 15 15 15 16 17 18 20 22 23 24 25 26 27 27 27 28 28 28 28 28 29 30 32 34 36 37 38 39 39 38 38 38 38
7 5 4 4 4 6 7 9 11 13 14 16 17 17 17 19 20 22 23 24 24 26 27 26 26 26 26 26 27 27 27 28 29 30 31 33 34 35 36 37 37 37 37 36
8 7 6 5 6 7 9 10 12 14 15 17 18 18 19 20 22 24 25 25 25 26 25 25 24 24 25 25 26 26 26 27 28 28 29 29 30 31 32 34 34 35 35 35
10 9 8 7 7 9 10 11 13 15 17 18 19 20 21 22 24 25 25 25 24 24 24 24 23 23 24 25 25 25 25 26 26 27 27 27 28 29 31 32 33 34 34 34
12 11 10 9 10 10 11 12 14 16 18 19 20 21 22 24 25 26 26 25 24 23 23 24 24 24 24 24 25 24 25 25 25 25 26 26 27 28 29 30 31 32 32 32
14 12 11 11 11 11 12 14 15 17 19 20 21 22 23 25 26 27 26 26 25 24 24 24 25 24 24 24 24 25 25 25 24 24 24 25 25 27 28 28 28 29 30 31
15 14 13 12 13 13 14 15 16 18 20 21 22 23 24 25 26 27 27 26 25 25 25 25 25 24 24 25 25 25 25 25 24 24 24 25 25 25 26 26 27 27 28 29